Вернуться в каталог

PEGASUS DEB

АктивенPO
NORAD 24197·DEBRIS·🇺🇸 United States

Запущен May 19, 1994 с Vandenberg Space Force Base

Loading…

Ближайшие Пролёты (ближайшие 24 часа)

TLE

СвежийSource: Space-Track

Эпоха: Sep 14, 2026, 04:49 UTC

1 24197U 94029JY  26257.20071937  .00002594  00000-0  24452-3 0  9998
2 24197  82.0878 217.6006 0071877  18.9089  41.5991 14.91458568710014

Отслеживайте PEGASUS DEB в реальном времени с AllMySat

Download on the App Store